This is the latest recevied weather packets stored in our database for station/object OH7GGX-14. If no packets are shown the sender has not sent any weather packets the latest 10 day(s).
| Time | Temp. | Humidity | Pressure | Rain* | Wind** | Luminosity | Snow |
|---|---|---|---|---|---|---|---|
| 1777501307 | -3.89° C | 93% | 1021.7 hPa | 0 mm | - | - | - |
| 1777500707 | -3.89° C | 92% | 1021.8 hPa | 0 mm | - | - | - |
| 1777500107 | -3.89° C | 92% | 1021.7 hPa | 0 mm | - | - | - |
| 1777499507 | -3.89° C | 91% | 1021.9 hPa | 0 mm | - | - | - |
| 1777498907 | -3.33° C | 90% | 1021.8 hPa | 0 mm | - | - | - |
| 1777498307 | -3.33° C | 89% | 1021.8 hPa | 0 mm | - | - | - |
| 1777497707 | -3.33° C | 89% | 1021.7 hPa | 0 mm | - | - | - |
| 1777497107 | -3.33° C | 88% | 1021.7 hPa | 0 mm | - | - | - |
| 1777496507 | -2.78° C | 87% | 1021.7 hPa | 0 mm | - | - | - |
| 1777495907 | -2.78° C | 86% | 1021.7 hPa | 0 mm | - | - | - |
| 1777495307 | -2.78° C | 85% | 1021.7 hPa | 0 mm | - | - | - |
| 1777494707 | -2.22° C | 85% | 1021.7 hPa | 0 mm | - | - | - |
| 1777494107 | -2.22° C | 84% | 1021.8 hPa | 0 mm | - | - | - |
| 1777493507 | -2.22° C | 83% | 1021.8 hPa | 0 mm | - | - | - |
| 1777492907 | -2.22° C | 82% | 1021.8 hPa | 0 mm | - | - | - |
| 1777492307 | -1.67° C | 81% | 1021.8 hPa | 0 mm | - | - | - |
| 1777491707 | -1.67° C | 80% | 1021.7 hPa | 0 mm | - | - | - |
| 1777491107 | -1.67° C | 79% | 1021.9 hPa | 0 mm | - | - | - |
| 1777490507 | -1.67° C | 78% | 1021.9 hPa | 0 mm | - | - | - |
| 1777489907 | -1.11° C | 77% | 1021.9 hPa | 0 mm | - | - | - |
| 1777489307 | -1.11° C | 77% | 1021.8 hPa | 0 mm | - | - | - |
| 1777488707 | -1.11° C | 76% | 1021.9 hPa | 0 mm | - | - | - |
| 1777488107 | -0.56° C | 73% | 1021.9 hPa | 0 mm | - | - | - |
| 1777487507 | 0° C | 72% | 1021.8 hPa | 0 mm | - | - | - |
| 1777486907 | 0° C | 70% | 1021.8 hPa | 0 mm | - | - | - |
* Rain latest hour (hover to see other rain measurements)
** Current wind speed in m/s (hover to see current wind gust speed)